iso_date,epoch_date,Year,Hour,Min,DOY,POS_DOY,Lat,Lon,BP,Ts,Ta,has_bp,has_ts,has_ta,BuoyID,Buoy_Type,Buoy_Owner,Logistics,Hemisphere
2018-02-03T05:05:16Z,1517634317,2018,5,5,34.212,34.212,-74.3068,-128.314,986.9,-1.02,-999.0,yes,yes,no,300234064823180,BD2GI,AOML,ARAON,South
2018-02-03T06:00:00Z,1517637600,2018,6,0,34.25,34.25,-74.3112,-128.346,986.7,-1.02,-999.0,yes,yes,no,300234064823180,BD2GI,AOML,ARAON,South
2018-02-03T07:00:28Z,1517641229,2018,7,0,34.292,34.292,-74.3162,-128.3846,986.1,-1.09,-999.0,yes,yes,no,300234064823180,BD2GI,AOML,ARAON,South
2018-02-03T07:59:31Z,1517644771,2018,8,0,34.333,34.333,-74.3202,-128.408,986.0,-1.09,-999.0,yes,yes,no,300234064823180,BD2GI,AOML,ARAON,South
2018-02-03T09:00:00Z,1517648400,2018,9,0,34.375,34.375,-74.3242,-128.4348,985.8,-0.95,-999.0,yes,yes,no,300234064823180,BD2GI,AOML,ARAON,South
2018-02-03T10:00:28Z,1517652029,2018,10,0,34.417,34.417,-74.3278,-128.4552,985.2,-1.06,-999.0,yes,yes,no,300234064823180,BD2GI,AOML,ARAON,South
2018-02-03T10:59:31Z,1517655571,2018,11,0,34.458,34.458,-74.3312,-128.4782,984.5,-1.12,-999.0,yes,yes,no,300234064823180,BD2GI,AOML,ARAON,South
2018-02-03T12:00:00Z,1517659200,2018,12,0,34.5,34.5,-74.3338,-128.5018,983.7,-1.12,-999.0,yes,yes,no,300234064823180,BD2GI,AOML,ARAON,South
2018-02-03T13:00:28Z,1517662829,2018,13,0,34.542,34.542,-74.337,-128.5258,982.4,-1.02,-999.0,yes,yes,no,300234064823180,BD2GI,AOML,ARAON,South
2018-02-03T13:59:31Z,1517666371,2018,14,0,34.583,34.583,-74.338,-128.5444,981.7,-1.02,-999.0,yes,yes,no,300234064823180,BD2GI,AOML,ARAON,South
2018-02-03T15:00:00Z,1517670000,2018,15,0,34.625,34.625,-74.3384,-128.5574,981.5,-1.02,-999.0,yes,yes,no,300234064823180,BD2GI,AOML,ARAON,South
2018-02-03T16:00:28Z,1517673629,2018,16,0,34.667,34.667,-74.339,-128.5612,981.6,-0.95,-999.0,yes,yes,no,300234064823180,BD2GI,AOML,ARAON,South
2018-02-03T16:59:31Z,1517677171,2018,17,0,34.708,34.708,-74.3406,-128.558,981.1,-0.92,-999.0,yes,yes,no,300234064823180,BD2GI,AOML,ARAON,South
2018-02-03T18:00:00Z,1517680800,2018,18,0,34.75,34.75,-74.3442,-128.5564,980.6,-0.95,-999.0,yes,yes,no,300234064823180,BD2GI,AOML,ARAON,South
2018-02-03T19:00:28Z,1517684429,2018,19,0,34.792,34.792,-74.3486,-128.5692,980.1,-0.95,-999.0,yes,yes,no,300234064823180,BD2GI,AOML,ARAON,South
2018-02-03T19:59:31Z,1517687971,2018,20,0,34.833,34.833,-74.3542,-128.5858,979.9,-0.92,-999.0,yes,yes,no,300234064823180,BD2GI,AOML,ARAON,South
2018-02-03T21:00:00Z,1517691600,2018,21,0,34.875,34.875,-74.3586,-128.6018,979.3,-0.92,-999.0,yes,yes,no,300234064823180,BD2GI,AOML,ARAON,South
2018-02-03T22:00:28Z,1517695229,2018,22,0,34.917,34.917,-74.3614,-128.621,978.8,-0.88,-999.0,yes,yes,no,300234064823180,BD2GI,AOML,ARAON,South
2018-02-03T22:59:31Z,1517698771,2018,23,0,34.958,34.958,-74.3624,-128.6438,978.3,-0.92,-999.0,yes,yes,no,300234064823180,BD2GI,AOML,ARAON,South
2018-02-04T00:00:00Z,1517702400,2018,0,0,35.0,35.0,-74.3616,-128.6606,977.8,-0.95,-999.0,yes,yes,no,300234064823180,BD2GI,AOML,ARAON,South
2018-02-04T01:00:28Z,1517706029,2018,1,0,35.042,35.042,-74.358,-128.6754,977.2,-0.95,-999.0,yes,yes,no,300234064823180,BD2GI,AOML,ARAON,South
2018-02-04T01:59:31Z,1517709571,2018,2,0,35.083,35.083,-74.3536,-128.682,977.0,-0.95,-999.0,yes,yes,no,300234064823180,BD2GI,AOML,ARAON,South
2018-02-04T03:00:00Z,1517713200,2018,3,0,35.125,35.125,-74.3512,-128.6854,976.7,-0.82,-999.0,yes,yes,no,300234064823180,BD2GI,AOML,ARAON,South
2018-02-04T04:00:28Z,1517716829,2018,4,0,35.167,35.167,-74.3498,-128.6916,976.4,-0.88,-999.0,yes,yes,no,300234064823180,BD2GI,AOML,ARAON,South
2018-02-04T04:59:31Z,1517720371,2018,5,0,35.208,35.208,-74.3496,-128.6988,976.4,-0.92,-999.0,yes,yes,no,300234064823180,BD2GI,AOML,ARAON,South
2018-02-04T06:00:00Z,1517724000,2018,6,0,35.25,35.25,-74.3428,-128.6594,976.5,-0.92,-999.0,yes,yes,no,300234064823180,BD2GI,AOML,ARAON,South
2018-02-04T07:00:28Z,1517727629,2018,7,0,35.292,35.292,-74.353,-128.716,976.5,-0.95,-999.0,yes,yes,no,300234064823180,BD2GI,AOML,ARAON,South
2018-02-04T07:59:31Z,1517731171,2018,8,0,35.333,35.333,-74.3546,-128.7238,976.4,-0.99,-999.0,yes,yes,no,300234064823180,BD2GI,AOML,ARAON,South
2018-02-04T09:00:00Z,1517734800,2018,9,0,35.375,35.375,-74.3562,-128.7306,976.1,-0.99,-999.0,yes,yes,no,300234064823180,BD2GI,AOML,ARAON,South
2018-02-04T10:00:28Z,1517738429,2018,10,0,35.417,35.417,-74.357,-128.74,976.1,-0.99,-999.0,yes,yes,no,300234064823180,BD2GI,AOML,ARAON,South
2018-02-04T10:59:31Z,1517741971,2018,11,0,35.458,35.458,-74.358,-128.751,976.3,-0.99,-999.0,yes,yes,no,300234064823180,BD2GI,AOML,ARAON,South
2018-02-04T12:00:00Z,1517745600,2018,12,0,35.5,35.5,-74.359,-128.7668,976.7,-0.99,-999.0,yes,yes,no,300234064823180,BD2GI,AOML,ARAON,South
2018-02-04T13:00:28Z,1517749229,2018,13,0,35.542,35.542,-74.36,-128.7864,977.0,-0.95,-999.0,yes,yes,no,300234064823180,BD2GI,AOML,ARAON,South
2018-02-04T13:59:31Z,1517752771,2018,14,0,35.583,35.583,-74.3614,-128.8052,977.3,-0.95,-999.0,yes,yes,no,300234064823180,BD2GI,AOML,ARAON,South
2018-02-04T15:00:00Z,1517756400,2018,15,0,35.625,35.625,-74.3628,-128.8266,977.7,-0.95,-999.0,yes,yes,no,300234064823180,BD2GI,AOML,ARAON,South
2018-02-04T16:00:28Z,1517760029,2018,16,0,35.667,35.667,-74.3646,-128.8466,978.1,-0.95,-999.0,yes,yes,no,300234064823180,BD2GI,AOML,ARAON,South
2018-02-04T16:59:31Z,1517763571,2018,17,0,35.708,35.708,-74.3666,-128.869,978.7,-0.92,-999.0,yes,yes,no,300234064823180,BD2GI,AOML,ARAON,South
2018-02-04T18:00:00Z,1517767200,2018,18,0,35.75,35.75,-74.3684,-128.8886,979.0,-0.92,-999.0,yes,yes,no,300234064823180,BD2GI,AOML,ARAON,South
2018-02-04T19:00:28Z,1517770829,2018,19,0,35.792,35.792,-74.3696,-128.9074,979.6,-0.88,-999.0,yes,yes,no,300234064823180,BD2GI,AOML,ARAON,South
2018-02-04T19:59:31Z,1517774371,2018,20,0,35.833,35.833,-74.3704,-128.9264,980.3,-0.85,-999.0,yes,yes,no,300234064823180,BD2GI,AOML,ARAON,South
2018-02-04T21:00:00Z,1517778000,2018,21,0,35.875,35.875,-74.3702,-128.946,980.8,-0.82,-999.0,yes,yes,no,300234064823180,BD2GI,AOML,ARAON,South
2018-02-04T22:00:28Z,1517781629,2018,22,0,35.917,35.917,-74.37,-128.9692,981.4,-0.78,-999.0,yes,yes,no,300234064823180,BD2GI,AOML,ARAON,South
2018-02-04T22:59:31Z,1517785171,2018,23,0,35.958,35.958,-74.3696,-128.992,982.1,-0.75,-999.0,yes,yes,no,300234064823180,BD2GI,AOML,ARAON,South
2018-02-05T00:00:00Z,1517788800,2018,0,0,36.0,36.0,-74.3708,-129.0136,982.6,-0.71,-999.0,yes,yes,no,300234064823180,BD2GI,AOML,ARAON,South
2018-02-05T01:00:28Z,1517792429,2018,1,0,36.042,36.042,-74.3708,-129.0338,983.2,-0.71,-999.0,yes,yes,no,300234064823180,BD2GI,AOML,ARAON,South
2018-02-05T01:59:31Z,1517795971,2018,2,0,36.083,36.083,-74.3708,-129.053,983.5,-0.68,-999.0,yes,yes,no,300234064823180,BD2GI,AOML,ARAON,South
2018-02-05T03:00:00Z,1517799600,2018,3,0,36.125,36.125,-74.371,-129.0678,983.9,-0.68,-999.0,yes,yes,no,300234064823180,BD2GI,AOML,ARAON,South
2018-02-05T04:00:28Z,1517803229,2018,4,0,36.167,36.167,-74.3696,-129.0816,984.3,-0.68,-999.0,yes,yes,no,300234064823180,BD2GI,AOML,ARAON,South
2018-02-05T04:59:31Z,1517806771,2018,5,0,36.208,36.208,-74.3682,-129.0954,984.9,-0.68,-999.0,yes,yes,no,300234064823180,BD2GI,AOML,ARAON,South
2018-02-05T06:00:00Z,1517810400,2018,6,0,36.25,36.25,-74.3666,-129.1092,985.5,-0.68,-999.0,yes,yes,no,300234064823180,BD2GI,AOML,ARAON,South
2018-02-05T07:00:28Z,1517814029,2018,7,0,36.292,36.292,-74.3652,-129.1216,985.9,-0.71,-999.0,yes,yes,no,300234064823180,BD2GI,AOML,ARAON,South
2018-02-05T07:59:31Z,1517817571,2018,8,0,36.333,36.333,-74.3632,-129.1322,986.3,-0.71,-999.0,yes,yes,no,300234064823180,BD2GI,AOML,ARAON,South
2018-02-05T09:00:00Z,1517821200,2018,9,0,36.375,36.375,-74.3616,-129.1402,986.5,-0.75,-999.0,yes,yes,no,300234064823180,BD2GI,AOML,ARAON,South
2018-02-05T10:00:28Z,1517824829,2018,10,0,36.417,36.417,-74.3596,-129.148,986.9,-0.82,-999.0,yes,yes,no,300234064823180,BD2GI,AOML,ARAON,South
2018-02-05T10:59:31Z,1517828371,2018,11,0,36.458,36.458,-74.357,-129.1536,987.2,-0.95,-999.0,yes,yes,no,300234064823180,BD2GI,AOML,ARAON,South
2018-02-05T12:00:00Z,1517832000,2018,12,0,36.5,36.5,-74.3542,-129.1602,987.9,-0.95,-999.0,yes,yes,no,300234064823180,BD2GI,AOML,ARAON,South
2018-02-05T13:00:28Z,1517835629,2018,13,0,36.542,36.542,-74.3518,-129.1668,987.8,-0.88,-999.0,yes,yes,no,300234064823180,BD2GI,AOML,ARAON,South
2018-02-05T13:59:31Z,1517839171,2018,14,0,36.583,36.583,-74.348,-129.1728,988.5,-0.95,-999.0,yes,yes,no,300234064823180,BD2GI,AOML,ARAON,South
2018-02-05T15:00:00Z,1517842800,2018,15,0,36.625,36.625,-74.344,-129.184,988.3,-0.95,-999.0,yes,yes,no,300234064823180,BD2GI,AOML,ARAON,South
2018-02-05T16:00:28Z,1517846429,2018,16,0,36.667,36.667,-74.3388,-129.1976,988.6,-0.92,-999.0,yes,yes,no,300234064823180,BD2GI,AOML,ARAON,South
2018-02-05T16:59:31Z,1517849971,2018,17,0,36.708,36.708,-74.3336,-129.2124,988.4,-0.92,-999.0,yes,yes,no,300234064823180,BD2GI,AOML,ARAON,South
2018-02-05T18:00:00Z,1517853600,2018,18,0,36.75,36.75,-74.328,-129.2318,988.4,-0.92,-999.0,yes,yes,no,300234064823180,BD2GI,AOML,ARAON,South
2018-02-05T19:00:28Z,1517857229,2018,19,0,36.792,36.792,-74.3226,-129.2522,988.2,-0.85,-999.0,yes,yes,no,300234064823180,BD2GI,AOML,ARAON,South
2018-02-05T19:59:31Z,1517860771,2018,20,0,36.833,36.833,-74.3166,-129.2728,988.2,-0.95,-999.0,yes,yes,no,300234064823180,BD2GI,AOML,ARAON,South
2018-02-05T21:00:00Z,1517864400,2018,21,0,36.875,36.875,-74.3106,-129.2944,988.0,-0.78,-999.0,yes,yes,no,300234064823180,BD2GI,AOML,ARAON,South
2018-02-05T22:00:28Z,1517868029,2018,22,0,36.917,36.917,-74.3042,-129.3168,987.7,-0.58,-999.0,yes,yes,no,300234064823180,BD2GI,AOML,ARAON,South
2018-02-05T22:59:31Z,1517871571,2018,23,0,36.958,36.958,-74.2978,-129.3422,987.5,-0.37,-999.0,yes,yes,no,300234064823180,BD2GI,AOML,ARAON,South
2018-02-06T00:00:00Z,1517875200,2018,0,0,37.0,37.0,-74.291,-129.3658,987.1,-0.06,-999.0,yes,yes,no,300234064823180,BD2GI,AOML,ARAON,South
2018-02-06T01:00:28Z,1517878829,2018,1,0,37.042,37.042,-74.2844,-129.3922,986.8,-0.51,-999.0,yes,yes,no,300234064823180,BD2GI,AOML,ARAON,South
2018-02-06T01:59:31Z,1517882371,2018,2,0,37.083,37.083,-74.2786,-129.419,986.1,-0.51,-999.0,yes,yes,no,300234064823180,BD2GI,AOML,ARAON,South
2018-02-06T03:00:00Z,1517886000,2018,3,0,37.125,37.125,-74.2724,-129.446,985.6,-0.54,-999.0,yes,yes,no,300234064823180,BD2GI,AOML,ARAON,South
2018-02-06T04:00:28Z,1517889629,2018,4,0,37.167,37.167,-74.266,-129.4712,985.5,-0.68,-999.0,yes,yes,no,300234064823180,BD2GI,AOML,ARAON,South
2018-02-06T04:59:31Z,1517893171,2018,5,0,37.208,37.208,-74.2588,-129.4986,985.4,-0.68,-999.0,yes,yes,no,300234064823180,BD2GI,AOML,ARAON,South
2018-02-06T06:00:00Z,1517896800,2018,6,0,37.25,37.25,-74.2528,-129.5266,985.2,-0.64,-999.0,yes,yes,no,300234064823180,BD2GI,AOML,ARAON,South
2018-02-06T07:00:28Z,1517900429,2018,7,0,37.292,37.292,-74.2468,-129.5506,984.9,-0.64,-999.0,yes,yes,no,300234064823180,BD2GI,AOML,ARAON,South
2018-02-06T07:59:31Z,1517903971,2018,8,0,37.333,37.333,-74.2406,-129.577,985.0,-0.71,-999.0,yes,yes,no,300234064823180,BD2GI,AOML,ARAON,South
2018-02-06T09:00:00Z,1517907600,2018,9,0,37.375,37.375,-74.2338,-129.6034,984.9,-0.75,-999.0,yes,yes,no,300234064823180,BD2GI,AOML,ARAON,South
2018-02-06T10:00:28Z,1517911229,2018,10,0,37.417,37.417,-74.2278,-129.6268,984.8,-0.75,-999.0,yes,yes,no,300234064823180,BD2GI,AOML,ARAON,South
2018-02-06T10:59:31Z,1517914771,2018,11,0,37.458,37.458,-74.2212,-129.6466,984.7,-0.75,-999.0,yes,yes,no,300234064823180,BD2GI,AOML,ARAON,South
2018-02-06T12:00:00Z,1517918400,2018,12,0,37.5,37.5,-74.2142,-129.6654,984.6,-0.75,-999.0,yes,yes,no,300234064823180,BD2GI,AOML,ARAON,South
2018-02-06T13:00:28Z,1517922029,2018,13,0,37.542,37.542,-74.2062,-129.686,984.2,-0.82,-999.0,yes,yes,no,300234064823180,BD2GI,AOML,ARAON,South
2018-02-06T13:59:31Z,1517925571,2018,14,0,37.583,37.583,-74.1992,-129.7032,983.8,-0.82,-999.0,yes,yes,no,300234064823180,BD2GI,AOML,ARAON,South
2018-02-06T15:00:00Z,1517929200,2018,15,0,37.625,37.625,-74.1922,-129.7174,983.1,-0.82,-999.0,yes,yes,no,300234064823180,BD2GI,AOML,ARAON,South
2018-02-06T16:00:28Z,1517932829,2018,16,0,37.667,37.667,-74.186,-129.726,983.1,-0.82,-999.0,yes,yes,no,300234064823180,BD2GI,AOML,ARAON,South
2018-02-06T16:59:31Z,1517936371,2018,17,0,37.708,37.708,-74.1792,-129.734,982.4,-0.82,-999.0,yes,yes,no,300234064823180,BD2GI,AOML,ARAON,South
2018-02-06T18:00:00Z,1517940000,2018,18,0,37.75,37.75,-74.1732,-129.738,982.1,-0.82,-999.0,yes,yes,no,300234064823180,BD2GI,AOML,ARAON,South
2018-02-06T19:00:28Z,1517943629,2018,19,0,37.792,37.792,-74.1656,-129.7456,981.0,-0.82,-999.0,yes,yes,no,300234064823180,BD2GI,AOML,ARAON,South
2018-02-06T19:59:31Z,1517947171,2018,20,0,37.833,37.833,-74.1602,-129.7544,980.2,-0.85,-999.0,yes,yes,no,300234064823180,BD2GI,AOML,ARAON,South
2018-02-06T21:00:00Z,1517950800,2018,21,0,37.875,37.875,-74.1542,-129.7624,979.8,-0.85,-999.0,yes,yes,no,300234064823180,BD2GI,AOML,ARAON,South
2018-02-06T22:00:28Z,1517954429,2018,22,0,37.917,37.917,-74.1486,-129.7708,979.7,-0.88,-999.0,yes,yes,no,300234064823180,BD2GI,AOML,ARAON,South
2018-02-06T22:59:31Z,1517957971,2018,23,0,37.958,37.958,-74.1434,-129.7758,979.5,-0.88,-999.0,yes,yes,no,300234064823180,BD2GI,AOML,ARAON,South
2018-02-07T00:00:00Z,1517961600,2018,0,0,38.0,38.0,-74.1382,-129.7782,978.7,-0.92,-999.0,yes,yes,no,300234064823180,BD2GI,AOML,ARAON,South
2018-02-07T01:00:28Z,1517965229,2018,1,0,38.042,38.042,-74.1316,-129.7744,978.3,-0.92,-999.0,yes,yes,no,300234064823180,BD2GI,AOML,ARAON,South
2018-02-07T01:59:31Z,1517968771,2018,2,0,38.083,38.083,-74.1266,-129.7792,978.4,-0.92,-999.0,yes,yes,no,300234064823180,BD2GI,AOML,ARAON,South
2018-02-07T03:00:00Z,1517972400,2018,3,0,38.125,38.125,-74.1214,-129.7818,978.3,-0.95,-999.0,yes,yes,no,300234064823180,BD2GI,AOML,ARAON,South
2018-02-07T04:00:28Z,1517976029,2018,4,0,38.167,38.167,-74.1158,-129.7892,978.1,-0.95,-999.0,yes,yes,no,300234064823180,BD2GI,AOML,ARAON,South
2018-02-07T04:59:31Z,1517979571,2018,5,0,38.208,38.208,-74.1114,-129.7958,977.9,-0.95,-999.0,yes,yes,no,300234064823180,BD2GI,AOML,ARAON,South
2018-02-07T06:00:00Z,1517983200,2018,6,0,38.25,38.25,-74.1064,-129.7988,978.2,-0.99,-999.0,yes,yes,no,300234064823180,BD2GI,AOML,ARAON,South
2018-02-07T07:00:28Z,1517986829,2018,7,0,38.292,38.292,-74.1016,-129.8006,978.9,-0.99,-999.0,yes,yes,no,300234064823180,BD2GI,AOML,ARAON,South
2018-02-07T07:59:31Z,1517990371,2018,8,0,38.333,38.333,-74.0962,-129.802,978.7,-0.99,-999.0,yes,yes,no,300234064823180,BD2GI,AOML,ARAON,South
2018-02-07T09:00:00Z,1517994000,2018,9,0,38.375,38.375,-74.0912,-129.8018,979.0,-0.99,-999.0,yes,yes,no,300234064823180,BD2GI,AOML,ARAON,South
2018-02-07T10:00:28Z,1517997629,2018,10,0,38.417,38.417,-74.0852,-129.8002,979.0,-0.99,-999.0,yes,yes,no,300234064823180,BD2GI,AOML,ARAON,South
2018-02-07T10:59:31Z,1518001171,2018,11,0,38.458,38.458,-74.0784,-129.8006,979.5,-0.99,-999.0,yes,yes,no,300234064823180,BD2GI,AOML,ARAON,South
2018-02-07T12:00:00Z,1518004800,2018,12,0,38.5,38.5,-74.0718,-129.802,979.5,-0.99,-999.0,yes,yes,no,300234064823180,BD2GI,AOML,ARAON,South
2018-02-07T13:00:28Z,1518008429,2018,13,0,38.542,38.542,-74.0656,-129.8024,979.6,-0.99,-999.0,yes,yes,no,300234064823180,BD2GI,AOML,ARAON,South
2018-02-07T13:59:31Z,1518011971,2018,14,0,38.583,38.583,-74.0598,-129.8022,979.8,-0.99,-999.0,yes,yes,no,300234064823180,BD2GI,AOML,ARAON,South
2018-02-07T15:00:00Z,1518015600,2018,15,0,38.625,38.625,-74.054,-129.8014,979.8,-0.99,-999.0,yes,yes,no,300234064823180,BD2GI,AOML,ARAON,South
2018-02-07T16:00:28Z,1518019229,2018,16,0,38.667,38.667,-74.0482,-129.8056,979.1,-1.02,-999.0,yes,yes,no,300234064823180,BD2GI,AOML,ARAON,South
2018-02-07T16:59:31Z,1518022771,2018,17,0,38.708,38.708,-74.0428,-129.8138,978.8,-1.02,-999.0,yes,yes,no,300234064823180,BD2GI,AOML,ARAON,South
2018-02-07T18:00:00Z,1518026400,2018,18,0,38.75,38.75,-74.0384,-129.8272,978.3,-1.02,-999.0,yes,yes,no,300234064823180,BD2GI,AOML,ARAON,South
2018-02-07T19:00:28Z,1518030029,2018,19,0,38.792,38.792,-74.0344,-129.8412,977.6,-1.06,-999.0,yes,yes,no,300234064823180,BD2GI,AOML,ARAON,South
2018-02-07T19:59:31Z,1518033571,2018,20,0,38.833,38.833,-74.0316,-129.8526,977.1,-1.06,-999.0,yes,yes,no,300234064823180,BD2GI,AOML,ARAON,South
2018-02-07T21:00:00Z,1518037200,2018,21,0,38.875,38.875,-74.0278,-129.8602,976.8,-1.06,-999.0,yes,yes,no,300234064823180,BD2GI,AOML,ARAON,South
2018-02-07T22:00:28Z,1518040829,2018,22,0,38.917,38.917,-74.0238,-129.8624,976.5,-1.09,-999.0,yes,yes,no,300234064823180,BD2GI,AOML,ARAON,South
2018-02-07T22:59:31Z,1518044371,2018,23,0,38.958,38.958,-74.0188,-129.8582,976.4,-1.09,-999.0,yes,yes,no,300234064823180,BD2GI,AOML,ARAON,South
2018-02-08T00:00:00Z,1518048000,2018,0,0,39.0,39.0,-74.0124,-129.852,975.9,-1.12,-999.0,yes,yes,no,300234064823180,BD2GI,AOML,ARAON,South
2018-02-08T01:00:28Z,1518051629,2018,1,0,39.042,39.042,-74.0048,-129.84,975.4,-1.09,-999.0,yes,yes,no,300234064823180,BD2GI,AOML,ARAON,South
2018-02-08T01:59:31Z,1518055171,2018,2,0,39.083,39.083,-73.9944,-129.8276,974.9,-0.95,-999.0,yes,yes,no,300234064823180,BD2GI,AOML,ARAON,South
2018-02-08T03:00:00Z,1518058800,2018,3,0,39.125,39.125,-74.0144,-129.8914,973.9,-0.95,-999.0,yes,yes,no,300234064823180,BD2GI,AOML,ARAON,South
2018-02-08T04:00:28Z,1518062429,2018,4,0,39.167,39.167,-73.9698,-129.8212,973.1,-0.99,-999.0,yes,yes,no,300234064823180,BD2GI,AOML,ARAON,South
2018-02-08T04:59:31Z,1518065971,2018,5,0,39.208,39.208,-73.9572,-129.834,972.3,-0.95,-999.0,yes,yes,no,300234064823180,BD2GI,AOML,ARAON,South
2018-02-08T06:00:00Z,1518069600,2018,6,0,39.25,39.25,-73.946,-129.8586,970.9,-0.95,-999.0,yes,yes,no,300234064823180,BD2GI,AOML,ARAON,South
2018-02-08T07:00:28Z,1518073229,2018,7,0,39.292,39.292,-73.9382,-129.8852,970.2,-0.95,-999.0,yes,yes,no,300234064823180,BD2GI,AOML,ARAON,South
2018-02-08T07:59:31Z,1518076771,2018,8,0,39.333,39.333,-73.9324,-129.9108,968.4,-0.95,-999.0,yes,yes,no,300234064823180,BD2GI,AOML,ARAON,South
2018-02-08T09:00:00Z,1518080400,2018,9,0,39.375,39.375,-73.929,-129.9364,966.6,-0.95,-999.0,yes,yes,no,300234064823180,BD2GI,AOML,ARAON,South
2018-02-08T10:00:28Z,1518084029,2018,10,0,39.417,39.417,-73.927,-129.9568,965.0,-0.95,-999.0,yes,yes,no,300234064823180,BD2GI,AOML,ARAON,South
2018-02-08T10:59:31Z,1518087571,2018,11,0,39.458,39.458,-73.9262,-129.9728,963.9,-0.99,-999.0,yes,yes,no,300234064823180,BD2GI,AOML,ARAON,South
2018-02-08T12:00:00Z,1518091200,2018,12,0,39.5,39.5,-73.9278,-129.9802,962.5,-0.99,-999.0,yes,yes,no,300234064823180,BD2GI,AOML,ARAON,South
2018-02-08T13:00:28Z,1518094829,2018,13,0,39.542,39.542,-73.9296,-129.9828,961.4,-0.99,-999.0,yes,yes,no,300234064823180,BD2GI,AOML,ARAON,South
2018-02-08T13:59:31Z,1518098371,2018,14,0,39.583,39.583,-73.9326,-129.9714,960.6,-0.99,-999.0,yes,yes,no,300234064823180,BD2GI,AOML,ARAON,South
2018-02-08T15:00:00Z,1518102000,2018,15,0,39.625,39.625,-73.9324,-129.9508,960.3,-1.02,-999.0,yes,yes,no,300234064823180,BD2GI,AOML,ARAON,South
2018-02-08T16:00:28Z,1518105629,2018,16,0,39.667,39.667,-73.9296,-129.9226,960.3,-1.02,-999.0,yes,yes,no,300234064823180,BD2GI,AOML,ARAON,South
2018-02-08T16:59:31Z,1518109171,2018,17,0,39.708,39.708,-73.9238,-129.8922,960.4,-1.02,-999.0,yes,yes,no,300234064823180,BD2GI,AOML,ARAON,South
2018-02-08T18:00:00Z,1518112800,2018,18,0,39.75,39.75,-73.9158,-129.8698,960.9,-1.02,-999.0,yes,yes,no,300234064823180,BD2GI,AOML,ARAON,South
2018-02-08T19:00:28Z,1518116429,2018,19,0,39.792,39.792,-73.9174,-129.8498,961.4,-1.16,-999.0,yes,yes,no,300234064823180,BD2GI,AOML,ARAON,South
2018-02-08T19:59:31Z,1518119971,2018,20,0,39.833,39.833,-73.9276,-129.8296,962.0,-1.06,-999.0,yes,yes,no,300234064823180,BD2GI,AOML,ARAON,South
2018-02-08T21:00:00Z,1518123600,2018,21,0,39.875,39.875,-73.934,-129.8086,962.5,-0.99,-999.0,yes,yes,no,300234064823180,BD2GI,AOML,ARAON,South
2018-02-08T22:00:28Z,1518127229,2018,22,0,39.917,39.917,-73.9424,-129.796,963.3,-0.95,-999.0,yes,yes,no,300234064823180,BD2GI,AOML,ARAON,South
2018-02-08T22:59:31Z,1518130771,2018,23,0,39.958,39.958,-73.9536,-129.7686,964.9,-1.23,-999.0,yes,yes,no,300234064823180,BD2GI,AOML,ARAON,South
2018-02-09T00:00:00Z,1518134400,2018,0,0,40.0,40.0,-73.9526,-129.7518,966.6,-1.19,-999.0,yes,yes,no,300234064823180,BD2GI,AOML,ARAON,South
2018-02-09T01:00:28Z,1518138029,2018,1,0,40.042,40.042,-73.9472,-129.738,968.3,-1.19,-999.0,yes,yes,no,300234064823180,BD2GI,AOML,ARAON,South
2018-02-09T01:59:31Z,1518141571,2018,2,0,40.083,40.083,-73.9418,-129.7254,969.4,-1.19,-999.0,yes,yes,no,300234064823180,BD2GI,AOML,ARAON,South
2018-02-09T03:00:00Z,1518145200,2018,3,0,40.125,40.125,-73.9358,-129.717,970.8,-1.19,-999.0,yes,yes,no,300234064823180,BD2GI,AOML,ARAON,South
2018-02-09T04:00:28Z,1518148829,2018,4,0,40.167,40.167,-73.9306,-129.711,972.1,-1.19,-999.0,yes,yes,no,300234064823180,BD2GI,AOML,ARAON,South
2018-02-09T04:59:31Z,1518152371,2018,5,0,40.208,40.208,-73.9262,-129.7042,973.5,-1.19,-999.0,yes,yes,no,300234064823180,BD2GI,AOML,ARAON,South
2018-02-09T06:00:00Z,1518156000,2018,6,0,40.25,40.25,-73.9214,-129.7036,974.7,-1.19,-999.0,yes,yes,no,300234064823180,BD2GI,AOML,ARAON,South
2018-02-09T07:00:28Z,1518159629,2018,7,0,40.292,40.292,-73.9198,-129.695,975.8,-1.23,-999.0,yes,yes,no,300234064823180,BD2GI,AOML,ARAON,South
2018-02-09T07:59:31Z,1518163171,2018,8,0,40.333,40.333,-73.9216,-129.6786,976.8,-1.33,-999.0,yes,yes,no,300234064823180,BD2GI,AOML,ARAON,South
2018-02-09T09:00:00Z,1518166800,2018,9,0,40.375,40.375,-73.9232,-129.6668,977.8,-1.19,-999.0,yes,yes,no,300234064823180,BD2GI,AOML,ARAON,South
2018-02-09T10:00:28Z,1518170429,2018,10,0,40.417,40.417,-73.9238,-129.6566,978.9,-1.23,-999.0,yes,yes,no,300234064823180,BD2GI,AOML,ARAON,South
2018-02-09T10:59:31Z,1518173971,2018,11,0,40.458,40.458,-73.9258,-129.6578,979.7,-1.4,-999.0,yes,yes,no,300234064823180,BD2GI,AOML,ARAON,South
2018-02-09T12:00:00Z,1518177600,2018,12,0,40.5,40.5,-73.9286,-129.6662,980.8,-1.16,-999.0,yes,yes,no,300234064823180,BD2GI,AOML,ARAON,South
2018-02-09T13:00:28Z,1518181229,2018,13,0,40.542,40.542,-73.931,-129.6692,981.4,-1.19,-999.0,yes,yes,no,300234064823180,BD2GI,AOML,ARAON,South
2018-02-09T13:59:31Z,1518184771,2018,14,0,40.583,40.583,-73.9334,-129.6802,982.4,-1.19,-999.0,yes,yes,no,300234064823180,BD2GI,AOML,ARAON,South
2018-02-09T15:00:00Z,1518188400,2018,15,0,40.625,40.625,-73.9366,-129.695,983.2,-1.16,-999.0,yes,yes,no,300234064823180,BD2GI,AOML,ARAON,South
2018-02-09T16:00:28Z,1518192029,2018,16,0,40.667,40.667,-73.939,-129.71,984.3,-1.33,-999.0,yes,yes,no,300234064823180,BD2GI,AOML,ARAON,South
2018-02-09T16:59:31Z,1518195571,2018,17,0,40.708,40.708,-73.9378,-129.728,985.3,-1.29,-999.0,yes,yes,no,300234064823180,BD2GI,AOML,ARAON,South
2018-02-09T18:00:00Z,1518199200,2018,18,0,40.75,40.75,-73.9354,-129.7482,986.3,-1.33,-999.0,yes,yes,no,300234064823180,BD2GI,AOML,ARAON,South
2018-02-09T19:00:28Z,1518202829,2018,19,0,40.792,40.792,-73.9314,-129.7688,987.3,-1.29,-999.0,yes,yes,no,300234064823180,BD2GI,AOML,ARAON,South
2018-02-09T19:59:31Z,1518206371,2018,20,0,40.833,40.833,-73.9254,-129.789,988.4,-1.33,-999.0,yes,yes,no,300234064823180,BD2GI,AOML,ARAON,South
2018-02-09T21:00:00Z,1518210000,2018,21,0,40.875,40.875,-73.9186,-129.8116,989.1,-1.16,-999.0,yes,yes,no,300234064823180,BD2GI,AOML,ARAON,South
2018-02-09T22:00:28Z,1518213629,2018,22,0,40.917,40.917,-73.9106,-129.8444,990.0,-1.19,-999.0,yes,yes,no,300234064823180,BD2GI,AOML,ARAON,South
2018-02-09T22:59:31Z,1518217171,2018,23,0,40.958,40.958,-73.9036,-129.8816,990.8,-1.29,-999.0,yes,yes,no,300234064823180,BD2GI,AOML,ARAON,South
2018-02-10T00:00:00Z,1518220800,2018,0,0,41.0,41.0,-73.8968,-129.923,991.5,-1.36,-999.0,yes,yes,no,300234064823180,BD2GI,AOML,ARAON,South
2018-02-10T01:00:28Z,1518224429,2018,1,0,41.042,41.042,-73.8926,-129.9616,992.2,-1.26,-999.0,yes,yes,no,300234064823180,BD2GI,AOML,ARAON,South
2018-02-10T01:59:31Z,1518227971,2018,2,0,41.083,41.083,-73.8904,-129.9944,992.8,-1.06,-999.0,yes,yes,no,300234064823180,BD2GI,AOML,ARAON,South
2018-02-10T03:00:00Z,1518231600,2018,3,0,41.125,41.125,-73.8876,-130.0286,993.2,-1.06,-999.0,yes,yes,no,300234064823180,BD2GI,AOML,ARAON,South